| time (UTC) | temp F | wind direction | speed MPH | gust MPH | rain 1hr in | rain 24hr in | rain mn in | humidity % | barometer mb |
| 20260502151530 | 55 | 18 | 2.0 | 5.0 | 0.00 | 0.00 | 0.00 | 87 | 1017.0 |
| 20260502150108 | 54 | 202 | 0.0 | 3.0 | 0.00 | 0.00 | 0.00 | 90 | 1016.8 |
| 20260502123030 | 52 | 113 | 1.0 | 3.0 | 0.00 | 0.00 | 0.00 | 88 | 1015.7 |
| 20260502114532 | 54 | 107 | 1.0 | 4.0 | 0.00 | 0.00 | 0.00 | 84 | 1015.9 |
| 20260502111528 | 56 | 167 | 2.0 | 4.0 | 0.00 | 0.00 | 0.00 | 80 | 1015.8 |
| 20260502110043 | 57 | 261 | 1.0 | 4.0 | 0.00 | 0.00 | 0.00 | 78 | 1015.8 |
| 20260502104532 | 57 | 39 | 2.0 | 4.0 | 0.00 | 0.00 | 0.00 | 78 | 1016.1 |
| 20260502103031 | 57 | 92 | 4.0 | 8.0 | 0.00 | 0.00 | 0.00 | 78 | 1016.5 |
| 20260502101531 | 57 | 76 | 5.0 | 9.0 | 0.00 | 0.00 | 0.00 | 78 | 1016.4 |
| 20260502071532 | 56 | 125 | 3.0 | 4.0 | 0.00 | 0.00 | 0.00 | 78 | 1016.4 |
| 20260502070032 | 57 | 96 | 2.0 | 5.0 | 0.00 | 0.00 | 0.00 | 77 | 1016.5 |
| 20260502064532 | 58 | 122 | 3.0 | 5.0 | 0.00 | 0.00 | 0.00 | 76 | 1016.5 |
| 20260502063028 | 58 | 123 | 2.0 | 5.0 | 0.00 | 0.00 | 0.00 | 76 | 1016.5 |
| 20260502061605 | 58 | 124 | 4.0 | 7.0 | 0.00 | 0.00 | 0.00 | 74 | 1016.5 |
| 20260502060029 | 59 | 185 | 0.0 | 4.0 | 0.00 | 0.00 | 0.00 | 71 | 1016.4 |
| 20260502054534 | 60 | 124 | 3.0 | 5.0 | 0.00 | 0.00 | 0.00 | 68 | 1016.1 |
| 20260502053107 | 61 | 109 | 4.0 | 7.0 | 0.00 | 0.00 | 0.00 | 66 | 1016.2 |
| 20260502051532 | 62 | 114 | 2.0 | 4.0 | 0.00 | 0.00 | 0.00 | 63 | 1016.1 |
| 20260502050030 | 63 | 72 | 2.0 | 7.0 | 0.00 | 0.00 | 0.00 | 62 | 1015.8 |
| 20260502044531 | 64 | 67 | 4.0 | 8.0 | 0.00 | 0.00 | 0.00 | 62 | 1015.8 |
| 20260502043031 | 64 | 65 | 4.0 | 9.0 | 0.00 | 0.00 | 0.00 | 61 | 1015.6 |
| 20260502041530 | 65 | 79 | 3.0 | 7.0 | 0.00 | 0.00 | 0.00 | 59 | 1015.4 |
| 20260502034531 | 67 | 56 | 4.0 | 15.0 | 0.00 | 0.00 | 0.00 | 57 | 1015.0 |
| 20260502033106 | 67 | 75 | 5.0 | 10.0 | 0.00 | 0.00 | 0.00 | 57 | 1015.0 |
| 20260502024533 | 69 | 52 | 5.0 | 11.0 | 0.00 | 0.00 | 0.00 | 52 | 1014.1 |
| 20260502023031 | 70 | 47 | 6.0 | 11.0 | 0.00 | 0.00 | 0.00 | 50 | 1013.8 |
| 20260502020037 | 73 | 48 | 5.0 | 9.0 | 0.00 | 0.00 | 0.00 | 47 | 1013.6 |
| 20260502014531 | 74 | 45 | 3.0 | 7.0 | 0.00 | 0.00 | 0.00 | 45 | 1013.5 |
| 20260502013107 | 75 | 50 | 4.0 | 8.0 | 0.00 | 0.00 | 0.00 | 43 | 1013.5 |
| 20260502011606 | 76 | 28 | 3.0 | 7.0 | 0.00 | 0.00 | 0.00 | 41 | 1013.4 |
| 20260502010030 | 78 | 359 | 2.0 | 7.0 | 0.00 | 0.00 | 0.00 | 40 | 1013.4 |
| 20260502004532 | 79 | 328 | 2.0 | 6.0 | 0.00 | 0.00 | 0.00 | 37 | 1013.4 |
| 20260502003036 | 81 | 312 | 3.0 | 7.0 | 0.00 | 0.00 | 0.00 | 37 | 1013.5 |
| 20260502001537 | 78 | 299 | 4.0 | 7.0 | 0.00 | 0.00 | 0.00 | 40 | 1013.5 |
| 20260501234606 | 77 | 38 | 3.0 | 9.0 | 0.00 | 0.00 | 0.00 | 37 | 1013.8 |
| 20260501233031 | 78 | 10 | 3.0 | 8.0 | 0.00 | 0.00 | 0.00 | 37 | 1013.9 |
| 20260501231535 | 78 | 348 | 4.0 | 9.0 | 0.00 | 0.00 | 0.00 | 36 | 1014.0 |
| 20260501230030 | 78 | 340 | 6.0 | 11.0 | 0.00 | 0.00 | 0.00 | 36 | 1014.4 |
| 20260501224606 | 78 | 331 | 6.0 | 12.0 | 0.00 | 0.00 | 0.00 | 36 | 1014.6 |
| 20260501223031 | 78 | 324 | 5.0 | 9.0 | 0.00 | 0.00 | 0.00 | 38 | 1014.8 |
| 20260501220032 | 76 | 351 | 4.0 | 12.0 | 0.00 | 0.00 | 0.00 | 38 | 1015.3 |
| 20260501214531 | 76 | 335 | 4.0 | 9.0 | 0.00 | 0.00 | 0.00 | 39 | 1015.5 |
| 20260501213031 | 76 | 349 | 5.0 | 12.0 | 0.00 | 0.00 | 0.00 | 39 | 1015.6 |
| 20260501211531 | 76 | 12 | 6.0 | 14.0 | 0.00 | 0.00 | 0.00 | 39 | 1015.7 |
| 20260501210030 | 76 | 348 | 5.0 | 10.0 | 0.00 | 0.00 | 0.00 | 41 | 1015.9 |
| 20260501204531 | 74 | 334 | 6.0 | 10.0 | 0.00 | 0.00 | 0.00 | 41 | 1016.2 |
| 20260501203032 | 74 | 349 | 5.0 | 13.0 | 0.00 | 0.00 | 0.00 | 43 | 1016.4 |
| 20260501201531 | 72 | 343 | 5.0 | 10.0 | 0.00 | 0.00 | 0.00 | 43 | 1016.6 |
| 20260501200058 | 72 | 12 | 5.0 | 10.0 | 0.00 | 0.00 | 0.00 | 45 | 1016.8 |
| 20260501194531 | 71 | 332 | 4.0 | 9.0 | 0.00 | 0.00 | 0.00 | 46 | 1017.1 |
| 20260501193032 | 70 | 317 | 4.0 | 10.0 | 0.00 | 0.00 | 0.00 | 45 | 1017.2 |
| 20260501191532 | 70 | 311 | 1.0 | 7.0 | 0.00 | 0.00 | 0.00 | 45 | 1017.4 |
| 20260501190031 | 69 | 275 | 1.0 | 6.0 | 0.00 | 0.00 | 0.00 | 46 | 1017.7 |
| 20260501183033 | 65 | 230 | 0.0 | 5.0 | 0.00 | 0.00 | 0.00 | 50 | 1018.2 |
| 20260501181532 | 64 | 289 | 1.0 | 4.0 | 0.00 | 0.00 | 0.00 | 51 | 1018.3 |
| 20260501180146 | 64 | 323 | 1.0 | 4.0 | 0.00 | 0.00 | 0.00 | 50 | 1018.4 |
| 20260501174532 | 63 | 303 | 2.0 | 4.0 | 0.00 | 0.00 | 0.00 | 51 | 1018.6 |
| 20260501171530 | 60 | 328 | 1.0 | 4.0 | 0.00 | 0.00 | 0.00 | 56 | 1018.9 |
| 20260501170033 | 59 | 31 | 0.0 | 4.0 | 0.00 | 0.00 | 0.00 | 59 | 1019.0 |
| 20260501164530 | 58 | 14 | 2.0 | 4.0 | 0.00 | 0.00 | 0.00 | 64 | 1019.1 |
| 20260501163031 | 56 | 345 | 1.0 | 4.0 | 0.00 | 0.00 | 0.00 | 69 | 1019.2 |
| 20260501161530 | 55 | 270 | 0.0 | 1.0 | 0.00 | 0.00 | 0.00 | 70 | 1019.4 |
| 20260501160031 | 54 | 246 | 0.0 | 2.0 | 0.00 | 0.00 | 0.00 | 72 | 1019.5 |
| 20260501154530 | 52 | 135 | 0.0 | 0.0 | 0.00 | 0.00 | 0.00 | 76 | 1019.5 |